Location: Dumpton Point
(51.3500°N, 1.4433°E)
Time: 05:32:18
(UTC+00:00)

Altair - Pass Details

Date: 07 October 2022
Orbit: 1501 x 1682 km, 47.2° (Epoch: 26 November)

Event Time Altitude Azimuth Distance (km) Brightness Sun altitude
Rises 04:53:38 0° 240° (WSW) 4,759 - -11.9°
Exits shadow 04:56:18 - 237° (WSW) 3,925 9.1 -11.4°
Reaches altitude 10° 04:56:42 10° 237° (WSW) 3,800 9.0 -11.4°
Maximum altitude 05:06:11 61° 161° (SSE) 1,828 8.0 -9.9°
Drops below altitude 10° 05:16:00 10° 85° (E) 3,929 11.4 -8.4°
Sets 05:19:14 0° 82° (E) 4,929 12.5 -7.9°
